{"data":{"norad_id":56927,"intl_designator":"2023-083BD","name":"STARLINK-5808","alt_names":[],"object_type":"PAYLOAD","status":"ACTIVE","operator":null,"country":"US","launch_date":"2023-06-12","launch_site_code":"AFETR","launch_vehicle":null,"mission":null,"orbit_class":"UNKNOWN","rcs_meters":null,"size_class":null,"mass_kg":null,"dimensions":null,"purposes":["comms"],"wikipedia_slug":null,"has_3d_model":false,"image_url":null,"decayed_at":null,"tle_current":{"epoch":"2026-09-20T20:32:39.698592Z","epoch_age_seconds":86888,"freshness":"FRESH","line1":"1 56927U 23083BD  26263.85601503 -.00000544  00000+0 -10251-4 0  9999","line2":"2 56927  43.0030 317.5555 0001086 272.2397  87.8330 15.27572908182690","mean_motion":15.27572908,"eccentricity":0.0001086,"inclination_deg":43.003,"raan_deg":317.5555,"arg_perigee_deg":272.2397,"mean_anomaly_deg":87.833,"bstar":-1.0251e-5,"rev_number":18269,"period_min":94.267186362014,"perigee_km":482.32520500488,"apogee_km":483.81545923741,"semimajor_km":6861.2073321211,"source":"CELESTRAK","updated_at":"2026-09-21T09:00:33.547534Z"}}}